Temp
24 24 24 25 25 25 25 25 25 25 26 26 26 26 25 25 25 25 25 25 25 26 26 26 26 26 26 26 26 26 26 26 26 26 26 25 25 25 25 25 25 25 25 25 25 25 25 25 25 25 24 24 24 24 23 23 23 23 23 23 23 23 23 23 23 23 23 23 23 23 23 23 22 22
24 24 24 24 25 25 25 25 25 25 26 26 26 26 26 26 25 25 25 24 25 26 26 26 26 26 26 26 26 26 26 26 26 26 26 25 25 25 25 25 25 25 25 25 25 25 25 25 25 25 24 24 24 23 23 23 23 23 23 23 23 23 23 23 24 24 24 24 24 23 23 23 23 23
24 24 24 24 24 25 25 25 25 25 25 25 26 26 26 26 25 25 24 24 25 25 25 25 25 25 26 26 26 26 26 26 26 26 26 26 25 25 25 25 25 25 26 25 25 25 25 25 24 24 24 24 23 23 23 23 23 23 23 23 23 24 24 24 24 24 24 24 24 24 23 23 23 23
24 24 24 24 24 24 24 25 25 25 25 25 25 26 25 25 25 25 25 24 24 25 25 25 25 25 25 26 26 26 26 26 26 26 26 26 25 25 25 25 25 25 25 25 25 25 25 24 24 23 23 23 23 23 23 23 23 23 23 24 24 24 24 24 24 24 24 24 24 24 23 23 23 23
24 24 24 24 24 24 24 25 25 25 25 25 25 25 25 25 25 25 25 24 24 25 25 25 25 25 25 26 26 26 26 26 26 26 26 26 25 25 25 25 25 25 25 25 24 24 24 23 23 23 23 23 23 23 23 23 23 24 24 23 23 23 23 23 23 23 23 23 23 23 23 23 23 23
25 24 24 24 24 24 24 24 25 25 25 25 25 25 25 25 25 25 25 24 24 24 25 25 25 25 25 25 26 25 25 26 26 26 26 26 25 25 25 25 25 25 24 24 24 24 23 23 23 23 23 23 23 23 23 23 23 23 23 23 23 23 23 23 23 23 23 22 22 22 23 23 23 22
24 24 24 24 25 24 25 25 25 25 25 25 25 25 25 25 25 25 25 24 24 24 24 25 25 25 25 25 25 25 25 25 25 25 25 25 25 25 25 25 25 24 24 24 23 23 23 23 23 23 23 23 23 23 23 23 23 23 23 22 22 22 22 22 22 22 22 22 21 21 22 22 22 22
24 24 24 24 24 24 24 25 25 25 25 25 25 25 25 25 25 25 24 24 24 24 24 24 25 25 25 25 25 25 25 25 25 25 25 25 25 25 25 25 24 24 23 23 23 23 22 23 23 23 23 23 23 23 23 23 23 22 22 22 22 22 22 22 21 21 21 21 21 21 21 21 21 22
24 24 24 24 24 24 24 24 25 25 25 25 25 25 25 24 24 24 24 24 24 24 24 24 25 25 25 25 25 25 25 25 25 25 25 25 25 25 25 25 24 24 23 23 23 22 22 22 22 23 23 23 23 23 23 23 22 22 22 22 22 21 21 21 21 21 20 20 20 20 20 20 21 21
24 24 25 25 25 24 24 25 25 25 25 25 25 25 25 25 24 24 24 24 24 24 24 24 24 25 25 25 25 25 25 25 25 25 25 25 25 25 25 25 24 24 23 23 22 22 22 22 22 23 23 23 23 23 22 22 22 22 22 21 21 21 21 21 20 20 20 20 20 20 20 20 20 20
25 25 25 25 25 25 25 25 25 25 25 25 25 25 25 25 24 24 24 24 24 24 24 24 24 24 24 25 25 25 25 25 25 25 24 24 25 24 25 25 24 23 23 23 22 22 21 22 22 22 23 23 23 23 22 22 22 22 21 21 21 21 20 20 20 20 21 21 21 21 21 20 20 20
25 25 25 25 26 26 26 26 25 25 25 25 25 25 25 24 24 24 24 24 24 24 24 24 24 24 24 24 25 25 25 25 25 25 24 24 24 24 24 25 24 24 23 22 22 22 21 22 22 22 22 23 22 22 22 22 21 21 21 21 20 20 20 20 21 21 21 22 22 22 21 21 20 20
24 25 25 25 26 26 26 26 26 26 25 25 25 25 25 24 24 24 24 24 24 24 23 24 24 24 24 24 24 25 25 25 25 25 24 24 24 24 24 25 24 24 23 22 22 22 22 22 22 22 22 22 22 21 21 21 21 21 20 20 20 20 21 21 21 22 22 22 22 22 21 21 21 20
25 25 25 25 26 26 26 26 26 26 26 25 25 25 25 25 24 24 24 24 24 23 23 23 23 23 23 24 24 24 25 25 25 25 24 24 24 23 23 24 24 24 23 22 22 22 22 22 22 22 22 22 21 21 21 20 20 20 20 20 20 21 21 21 21 21 21 21 21 21 21 21 20 20
25 25 25 25 25 25 25 26 26 26 26 26 26 26 26 25 25 24 24 24 24 23 23 23 23 23 23 24 24 24 25 25 25 25 24 24 24 23 23 23 24 24 23 22 22 22 21 22 22 22 21 21 20 20 20 19 19 19 19 20 20 21 21 21 21 21 21 21 21 21 21 20 20 20
25 25 25 25 25 25 25 25 25 25 26 26 26 26 25 25 25 24 24 24 24 24 23 23 23 23 23 24 24 24 25 25 25 24 24 24 24 23 23 22 23 24 23 22 22 22 21 21 21 21 21 20 20 20 19 19 19 19 19 20 20 20 20 20 20 21 21 21 20 20 20 20 20 19
25 25 25 25 25 25 25 25 24 25 25 25 25 25 25 24 24 24 24 24 24 24 23 23 23 23 23 23 24 25 25 25 24 24 24 24 24 23 23 23 23 24 23 22 22 22 21 21 21 21 21 20 19 19 19 19 19 19 19 19 20 20 20 20 20 20 20 20 20 20 20 20 19 18
25 25 25 24 25 25 25 25 25 25 25 25 25 24 24 24 24 24 24 24 24 24 24 23 23 24 24 24 25 26 25 24 24 24 24 24 24 23 23 23 23 24 23 23 22 22 21 21 21 21 20 20 19 19 19 19 19 19 19 19 19 19 19 20 20 20 20 20 20 20 20 19 18 17
24 25 24 24 25 25 25 25 25 25 25 24 24 24 24 24 24 24 25 25 25 25 25 24 24 25 25 25 25 26 25 25 24 24 23 23 23 23 23 23 23 23 23 23 22 22 22 21 21 21 20 20 19 19 19 19 19 19 19 19 19 19 19 19 19 19 19 20 20 20 20 19 18 17
24 24 24 24 24 25 25 25 25 25 25 24 24 24 24 24 24 24 25 25 25 25 25 25 25 25 26 26 26 25 25 25 24 23 23 23 23 22 22 22 22 23 23 23 22 22 22 21 21 21 20 20 19 19 19 19 19 19 19 19 19 19 19 19 18 18 19 19 20 20 20 19 18 17
24 24 24 24 24 24 25 25 25 25 24 24 23 24 24 24 24 24 25 25 25 25 25 25 25 26 26 26 26 26 25 25 24 23 22 23 23 22 21 21 21 22 23 23 22 22 22 22 21 21 20 19 18 18 18 18 18 19 19 19 19 19 18 18 18 18 18 19 19 20 19 19 18 17
24 24 24 24 24 24 25 25 25 25 24 24 24 24 24 23 24 24 25 25 25 25 25 25 25 26 26 26 26 26 25 25 25 23 23 24 23 22 22 21 21 22 22 22 22 22 22 22 21 20 19 18 18 18 18 18 18 19 19 19 19 19 18 18 18 17 18 18 18 19 19 19 18 17
24 24 24 24 24 24 25 25 25 25 24 24 24 24 23 23 23 25 25 25 25 25 25 25 25 25 26 26 26 25 25 25 25 24 24 24 23 22 22 22 21 21 22 23 22 22 22 22 21 20 19 19 18 18 18 18 18 19 19 19 19 19 18 18 17 17 17 17 17 18 18 18 18 17
23 23 24 24 24 24 25 25 25 25 24 24 24 24 23 23 24 25 25 24 24 25 25 25 25 25 25 25 25 25 25 25 25 25 24 24 24 23 23 22 21 21 22 23 22 22 22 22 21 21 20 20 19 18 18 18 18 19 19 18 18 18 18 18 17 17 17 17 17 17 17 17 17 17
23 23 24 24 25 25 25 25 25 25 25 24 24 23 24 24 25 25 25 24 24 24 24 24 24 24 25 25 24 25 25 25 25 25 25 24 24 24 24 23 22 21 22 23 22 22 22 22 22 21 20 20 19 19 18 18 18 19 19 18 18 18 18 18 17 17 16 16 16 17 16 16 16 16
23 23 24 25 25 25 25 25 25 25 25 24 24 24 24 25 25 24 24 24 24 23 23 24 24 24 24 24 24 24 24 25 25 25 25 24 24 24 24 24 23 22 22 23 22 22 22 22 22 21 20 19 19 19 18 18 18 18 19 18 18 18 18 18 17 17 16 16 16 16 16 16 15 15
24 24 24 25 25 25 25 25 25 25 25 24 24 25 25 25 25 24 24 23 23 23 23 23 23 23 23 23 24 24 24 24 25 25 25 24 24 24 24 24 23 23 23 23 22 22 22 21 21 21 21 20 19 18 18 18 18 18 18 18 18 17 18 17 17 17 16 16 16 16 16 16 15 15
24 24 25 25 25 25 25 25 26 25 25 25 25 25 25 25 24 24 23 23 23 22 22 22 22 23 23 23 24 24 25 25 24 24 24 24 24 24 23 23 23 23 23 23 22 22 21 21 21 21 21 20 20 19 18 18 18 18 18 18 18 17 17 17 17 17 17 17 17 16 16 16 15 15
25 25 25 25 25 25 25 25 25 25 25 25 25 25 25 24 24 23 23 23 22 22 22 22 22 23 24 24 24 25 24 24 24 24 24 24 23 23 23 23 23 23 23 22 22 21 21 21 21 21 21 20 20 20 19 19 18 18 18 18 18 18 17 17 17 17 17 17 16 16 15 15 15 15
25 25 25 25 25 25 25 25 25 25 25 25 25 25 25 24 24 23 23 23 22 22 22 23 23 23 24 24 24 24 23 23 23 23 23 23 23 23 23 23 23 22 22 22 22 21 21 21 21 21 21 20 20 20 19 19 19 18 18 18 18 18 17 17 17 17 17 17 16 16 15 15 15 14
25 25 25 25 25 24 24 24 24 25 25 25 25 24 24 24 24 24 24 23 23 23 23 23 23 24 24 23 23 23 22 22 23 23 23 23 23 23 22 22 22 21 21 21 21 21 21 21 21 21 21 21 20 19 19 18 19 18 18 18 18 18 17 17 17 17 17 17 16 16 15 15 15 15
24 24 24 24 24 23 23 24 24 24 24 24 24 24 24 24 24 24 24 23 23 23 23 23 23 23 23 22 22 22 22 22 22 22 22 22 22 22 22 21 21 21 21 21 21 21 21 21 20 20 20 20 20 19 19 18 18 18 18 18 18 18 17 17 17 17 17 17 17 16 16 16 15 15
24 23 23 23 22 22 22 23 23 23 23 23 23 23 23 23 24 24 23 23 23 23 23 23 23 23 22 22 22 21 21 21 22 22 22 22 22 21 21 21 21 21 21 21 21 21 21 20 20 20 20 19 19 19 19 18 18 18 18 18 18 18 17 17 17 17 17 17 17 17 16 16 16 16
22 22 22 22 22 22 22 22 22 22 22 22 22 23 23 23 23 23 23 23 24 23 23 23 23 23 22 21 21 21 21 21 21 21 21 22 21 21 20 20 20 20 20 20 20 20 20 20 20 19 19 19 19 18 18 18 18 19 18 18 18 18 17 17 17 17 17 17 17 17 17 16 16 16
22 22 22 21 21 21 21 22 22 22 22 22 22 22 22 22 23 23 23 23 23 23 23 23 23 23 22 21 21 21 21 21 21 21 21 20 20 20 20 20 20 20 19 19 20 20 20 20 19 19 18 18 18 18 18 18 18 18 18 18 18 18 18 17 17 17 17 16 16 16 16 16 16 16
22 22 22 21 22 21 21 22 22 22 22 22 22 22 22 22 22 22 22 23 23 23 23 23 23 23 22 21 20 20 21 21 20 20 20 20 20 19 19 19 19 19 18 18 19 20 19 19 19 19 18 17 17 18 18 18 18 18 18 18 18 18 18 18 17 17 17 16 16 16 16 16 16 16
22 22 22 22 22 22 22 22 22 22 22 22 22 22 22 22 23 23 23 23 22 22 22 22 22 22 22 21 20 20 20 20 20 20 19 20 19 19 18 18 18 18 18 19 19 19 19 19 19 19 18 17 17 18 18 19 18 18 18 18 19 19 18 18 18 18 17 17 16 16 16 16 16 16
22 22 22 21 22 22 22 22 22 22 22 22 22 22 22 23 23 23 22 22 22 21 22 22 22 22 21 20 20 20 20 20 20 19 19 19 18 18 18 18 18 18 18 18 19 19 19 19 19 19 18 18 18 18 19 19 18 19 19 19 19 19 19 18 18 18 18 17 17 16 16 16 16 16
22 22 22 22 22 22 22 22 22 22 23 23 22 22 22 23 23 22 21 21 21 21 21 21 21 21 21 20 20 20 20 19 19 19 19 18 18 18 18 18 18 18 17 17 17 18 18 18 19 19 19 19 19 19 20 19 19 19 19 19 19 19 19 18 18 18 18 17 17 16 16 16 16 16
21 21 22 22 22 22 23 23 22 23 23 23 23 23 23 23 22 21 21 21 22 21 21 21 21 21 21 20 20 20 19 19 19 19 19 18 18 18 17 17 18 17 17 17 17 17 18 18 19 19 20 20 20 20 20 19 19 19 19 19 19 19 19 18 18 18 18 17 17 16 16 16 16 16
21 21 21 22 22 23 23 23 23 23 23 23 23 23 23 23 22 22 22 22 22 21 21 20 20 20 20 20 20 19 19 19 19 19 18 18 18 17 17 17 18 17 17 17 17 17 18 19 19 19 19 20 20 19 18 19 19 19 19 19 19 19 19 18 18 18 17 17 16 15 15 15 15 15
21 21 22 22 22 23 23 23 23 23 23 23 23 23 23 22 22 22 22 22 21 21 20 20 20 20 20 20 19 19 19 19 19 18 18 17 17 17 17 17 17 17 17 17 17 17 18 19 19 19 19 19 19 18 18 18 19 19 19 19 19 19 18 18 18 18 17 17 16 15 15 15 14 14
21 22 22 22 21 22 23 23 23 22 22 23 23 23 22 22 22 22 22 21 21 20 20 20 20 20 19 19 19 19 19 19 19 18 18 17 17 17 17 17 17 17 17 17 17 17 18 18 19 19 18 18 18 17 18 18 19 19 19 19 19 18 18 18 18 17 17 17 16 16 16 15 14 14
21 22 22 21 21 22 23 23 22 22 22 22 22 22 22 21 21 21 21 21 21 20 20 20 20 20 19 19 19 19 18 18 18 18 18 18 17 17 17 17 17 17 18 17 17 17 18 18 18 18 18 18 18 17 17 18 18 18 19 19 18 18 18 18 17 17 17 17 17 17 16 15 15 14
21 21 22 21 21 22 23 22 21 21 21 21 21 21 21 21 21 21 21 21 20 20 20 20 20 19 19 19 19 19 18 18 18 18 18 17 17 17 17 17 17 17 17 17 17 18 18 17 17 17 18 18 18 18 17 18 18 18 18 18 18 17 17 17 17 17 17 17 17 16 15 15 14 14
Height
882 882 883 883 884 885 885 886 886 885 885 885 884 884 884 885 886 887 887 884 882 881 881 880 879 879 878 877 876 875 875 874 873 872 870 869 868 867 866 865 864 862 861 859 858 857 856 854 853 852 851 850 848 847 846 844 843 842 840 839 838 837 836 836 835 834 833 832 832 831 831 830 829 828
881 881 881 882 882 883 884 885 885 885 885 885 884 885 885 885 885 886 887 885 882 882 881 880 880 879 878 877 876 875 875 874 873 871 870 869 868 867 865 864 863 861 860 858 857 856 855 853 852 851 850 848 847 846 845 844 842 841 840 839 837 837 836 835 834 833 832 831 830 830 829 828 828 827
879 880 880 881 881 882 883 883 884 884 884 884 884 884 884 885 885 884 885 885 883 882 881 880 880 878 877 877 876 875 874 873 872 871 870 869 868 866 865 864 862 860 859 858 856 855 854 853 851 850 848 847 846 845 844 843 842 841 840 839 838 837 836 835 834 833 832 831 830 829 828 827 826 825
878 878 879 879 880 881 881 882 882 883 883 883 883 883 883 884 884 884 884 884 882 881 881 880 879 878 877 876 875 874 873 873 872 871 870 869 867 866 864 863 861 860 859 857 856 854 853 851 850 848 847 846 845 844 843 842 841 841 840 839 838 837 835 834 833 832 831 830 829 828 826 825 824 824
876 877 877 878 879 879 880 880 881 881 882 882 882 882 882 882 883 883 883 882 881 880 880 879 878 877 876 875 874 873 872 871 871 870 870 868 867 865 864 862 861 860 858 857 855 854 852 850 848 847 847 846 845 844 843 842 841 840 839 838 837 836 835 834 833 831 830 829 828 827 826 824 823 822
874 875 875 876 877 878 878 878 879 880 880 880 880 881 881 881 881 881 881 881 880 878 878 877 877 876 875 874 873 872 871 871 870 870 869 868 866 865 863 862 861 859 858 856 855 853 851 849 848 847 846 846 845 844 843 842 841 840 839 838 837 836 835 833 832 831 830 828 827 826 825 823 822 821
872 873 873 874 875 876 876 877 877 878 878 879 879 879 879 880 880 880 880 880 879 878 876 875 875 874 874 873 872 872 871 870 870 869 868 867 866 864 863 862 861 859 858 856 855 853 850 849 848 847 847 846 845 844 843 842 841 840 839 838 837 835 834 833 831 830 829 827 826 825 823 822 821 820
870 871 872 872 873 874 874 875 875 876 876 877 877 877 878 878 878 879 879 879 878 877 875 874 873 873 872 871 871 871 870 870 870 869 868 867 865 864 863 862 861 859 858 857 855 852 850 850 849 848 847 847 846 845 844 843 841 840 839 837 836 835 833 832 830 829 827 826 824 823 822 821 820 819
868 869 869 870 871 872 872 872 873 873 874 874 875 875 876 876 877 877 877 877 876 876 874 873 872 871 871 870 870 870 869 868 868 868 867 866 865 863 862 862 861 859 858 857 855 852 851 850 849 848 848 847 846 845 844 843 841 840 839 837 836 834 833 831 829 828 826 824 823 822 821 820 819 818
866 866 866 867 868 869 869 869 870 871 871 872 872 873 873 874 875 875 875 875 874 874 873 872 870 870 870 869 868 868 868 867 867 866 866 865 864 863 862 861 861 860 859 858 855 853 851 851 849 849 848 847 846 845 844 843 842 840 839 837 836 834 832 830 829 827 825 823 822 820 819 818 818 817
863 863 864 864 865 865 866 866 867 868 869 869 870 870 871 872 872 872 873 873 872 872 871 870 869 868 868 868 867 867 867 867 866 865 864 863 863 862 861 860 860 860 859 858 856 853 852 851 850 849 848 847 846 845 844 843 842 840 839 837 835 834 832 830 828 826 824 822 820 819 818 817 816 815
860 860 861 861 861 862 862 863 864 865 866 867 867 868 869 870 870 870 870 870 870 870 869 868 868 867 867 866 866 866 866 865 865 864 863 862 862 862 861 860 860 859 859 858 856 854 852 851 850 849 848 847 846 845 844 843 842 840 839 837 835 833 831 829 827 826 824 821 819 818 816 815 815 814
857 857 858 858 858 859 859 860 861 862 863 864 865 866 866 867 867 867 868 868 868 868 867 866 866 866 865 865 865 865 864 864 863 863 862 862 861 861 860 860 859 859 858 857 856 854 853 851 850 849 848 847 846 845 844 843 842 841 839 837 835 833 831 829 827 825 823 821 819 817 816 814 813 813
853 854 854 854 855 856 857 858 859 859 861 861 862 863 864 864 865 865 865 865 865 865 865 864 864 864 863 863 863 863 862 862 862 861 861 860 860 859 859 858 858 858 857 856 855 853 852 851 850 849 848 847 846 845 844 843 842 841 839 838 835 833 831 829 827 825 823 821 819 817 815 813 812 811
850 850 851 851 852 853 854 855 855 856 857 858 859 860 861 861 862 862 863 863 863 863 862 862 862 862 861 861 861 861 860 860 859 859 859 859 858 858 857 857 856 856 856 855 854 853 851 850 850 849 848 847 846 845 844 843 842 841 839 837 835 833 831 829 827 825 823 821 819 817 815 813 812 810
846 847 847 848 849 850 851 851 852 853 854 855 856 857 858 858 859 859 860 860 860 860 859 859 859 859 859 858 858 858 858 857 857 857 857 857 856 856 856 855 855 855 855 854 853 852 851 850 849 849 848 847 846 845 844 843 842 841 839 838 835 833 831 829 827 825 823 821 819 817 815 813 811 810
842 843 844 845 845 846 847 848 849 850 851 852 853 853 854 855 855 856 856 857 857 857 856 856 856 856 857 856 856 856 856 856 855 855 855 855 855 855 854 854 854 854 854 853 852 851 850 849 849 848 848 847 846 845 844 843 842 840 839 838 836 833 831 829 828 826 823 821 819 817 815 813 811 810
838 839 841 841 842 843 844 845 846 847 848 849 849 850 851 851 852 852 853 853 853 853 853 853 852 853 855 854 853 854 854 854 854 854 854 854 853 853 853 852 852 853 853 852 852 851 850 849 848 848 847 846 846 845 844 843 842 841 839 838 836 834 832 830 828 826 824 822 819 817 815 813 812 810
834 835 837 838 838 839 840 841 842 844 844 845 846 847 847 847 848 848 849 850 850 850 850 850 850 851 852 852 851 852 852 852 852 852 852 852 852 851 851 850 850 851 851 851 851 850 849 848 848 847 846 846 845 845 844 843 842 841 839 838 836 834 832 830 829 827 825 822 820 817 815 814 812 811
830 831 832 834 835 835 836 837 839 840 841 842 843 843 843 844 844 844 845 846 846 847 847 848 849 849 850 850 849 850 850 850 850 851 851 850 850 850 849 848 848 849 849 849 849 849 848 847 847 846 846 845 845 844 844 843 842 841 840 838 836 834 833 831 829 827 825 823 821 818 816 815 813 811
826 827 828 829 830 831 832 833 835 837 838 839 839 840 840 841 841 841 841 842 843 844 845 846 846 846 847 847 847 847 848 848 848 849 848 848 848 848 847 847 846 847 847 847 847 847 847 846 846 845 845 845 844 844 843 843 842 841 840 839 837 835 833 831 830 829 826 824 822 819 817 816 814 813
822 822 823 825 826 827 827 829 831 833 834 835 836 837 837 838 837 837 838 839 840 841 842 843 844 844 844 844 844 845 845 846 846 846 845 845 846 846 846 845 845 844 844 845 845 846 845 845 844 844 844 844 843 842 842 842 842 841 840 839 837 835 833 832 831 830 827 825 822 820 818 816 815 814
817 818 819 820 821 822 823 825 826 828 830 831 832 833 834 834 833 833 834 836 837 838 839 840 841 840 840 841 841 841 842 842 843 842 842 843 844 844 843 843 843 843 842 842 843 843 843 843 843 843 843 843 842 841 841 841 841 840 839 838 837 835 834 832 832 830 828 826 823 821 819 817 816 814
813 814 815 816 817 818 819 820 822 824 825 826 828 829 830 829 828 830 831 833 834 835 836 837 837 837 837 837 837 838 838 839 839 840 840 840 841 841 841 841 841 841 840 840 841 841 841 841 841 841 841 841 840 839 840 840 840 840 839 838 837 835 834 833 832 831 830 827 825 822 820 818 817 815
808 809 810 811 811 813 814 816 818 819 821 822 823 824 824 824 826 827 828 829 831 832 833 833 833 833 833 833 833 834 835 835 836 836 837 837 838 838 838 838 838 838 838 838 839 839 839 839 838 838 839 839 839 838 839 839 839 839 839 837 836 835 834 833 833 832 830 828 826 823 821 819 817 816
803 804 805 806 807 808 810 811 813 814 816 818 818 819 819 821 823 824 825 826 828 829 829 829 829 829 829 829 829 830 831 832 833 834 834 835 835 835 835 835 835 835 835 836 837 837 837 836 836 837 837 838 838 838 838 838 838 838 838 837 836 835 834 833 833 832 831 829 827 825 823 821 819 817
798 800 800 801 803 804 805 807 808 810 812 813 813 814 815 817 819 821 822 823 824 825 825 826 825 825 825 825 826 826 827 828 829 830 831 832 832 832 833 833 833 833 833 833 834 834 834 834 834 835 836 836 837 838 838 837 837 837 837 837 836 835 834 833 833 832 831 829 827 825 824 822 820 819
794 795 796 797 799 800 801 802 804 805 807 808 808 810 812 813 815 816 818 819 820 821 821 821 821 821 821 822 822 822 823 825 826 827 828 828 829 829 830 830 830 830 831 831 831 831 831 832 832 833 834 835 836 836 836 836 836 836 836 836 836 835 834 833 833 832 831 829 827 826 824 823 821 820
790 791 792 794 795 796 797 798 799 800 802 803 803 805 807 809 810 812 813 814 815 816 817 817 817 817 818 818 818 819 820 821 822 823 824 825 825 826 827 827 827 828 828 828 828 828 829 830 831 832 833 833 834 835 835 835 835 835 835 835 834 834 834 833 832 832 830 829 827 826 824 823 822 820
785 787 789 791 791 792 793 795 795 795 796 798 799 801 802 804 805 807 808 809 810 811 812 813 813 813 814 814 815 816 817 817 818 819 820 821 822 823 824 824 825 825 826 826 826 826 827 828 829 830 831 832 832 833 833 833 833 834 834 833 833 832 832 832 832 831 830 829 828 826 825 824 822 820
780 783 785 786 787 788 790 790 790 791 792 793 794 796 798 799 800 802 803 805 805 806 807 808 809 809 810 811 811 812 813 813 814 815 816 817 818 820 821 822 822 823 824 825 825 825 825 826 827 828 829 830 831 831 831 831 831 831 831 831 830 830 831 831 831 830 829 828 827 827 825 824 823 821
776 780 782 783 784 785 786 786 786 786 787 788 789 791 793 794 796 798 799 800 801 802 803 804 804 805 806 807 808 809 810 810 811 811 812 813 814 816 817 819 820 821 823 823 824 824 824 824 825 826 827 828 829 829 829 829 829 829 829 828 828 828 828 829 829 828 828 827 827 826 825 824 822 821
773 776 777 778 778 779 780 781 781 781 782 784 785 786 788 790 791 793 794 795 795 797 798 799 800 800 801 802 804 805 806 807 807 808 808 809 809 811 812 814 816 818 820 821 822 822 823 823 824 824 825 826 826 827 827 827 827 826 826 825 825 825 826 826 826 826 826 826 825 825 824 823 822 820
770 771 771 772 772 774 775 776 776 777 778 780 781 781 783 785 786 787 788 789 790 792 794 794 795 796 797 797 799 800 801 802 803 804 805 804 804 804 805 807 811 815 818 820 821 821 821 822 822 823 824 824 824 825 825 826 825 824 823 823 822 823 823 824 824 824 824 824 824 824 823 822 821 820
764 765 765 765 767 769 770 771 772 773 775 776 776 776 778 779 781 782 782 783 785 787 788 789 790 791 792 792 793 794 795 796 798 799 801 802 801 800 801 802 805 808 813 818 820 820 820 820 821 821 822 822 823 823 823 824 824 823 822 821 821 821 821 822 822 822 823 823 823 823 822 822 821 820
758 758 759 760 761 764 765 766 767 768 769 770 770 771 773 774 775 775 776 777 780 782 782 784 785 786 786 787 788 789 790 791 792 794 796 798 798 799 800 801 800 801 805 812 816 817 817 818 819 819 819 820 821 822 821 821 822 821 821 820 820 820 820 820 820 821 821 822 822 822 821 821 820 820
751 752 753 754 756 758 759 760 761 762 763 764 764 766 767 768 768 769 770 773 775 776 777 779 780 781 782 783 784 786 786 786 787 789 791 793 794 794 795 795 795 796 798 804 809 813 814 815 816 816 816 818 819 819 819 819 820 820 820 819 819 818 818 818 818 819 819 820 820 820 820 819 819 818
745 746 748 749 751 753 754 755 756 757 757 758 759 760 761 762 762 764 766 768 770 771 773 774 775 776 777 778 779 781 782 783 784 785 787 789 790 789 787 786 787 788 792 797 804 809 811 812 812 812 812 814 815 816 817 818 818 818 818 818 818 817 817 817 817 817 817 817 818 818 818 817 816 816
740 742 743 744 746 748 749 750 751 751 751 752 753 754 755 755 756 758 761 763 765 766 767 768 768 770 771 772 774 775 777 778 780 781 784 785 786 785 782 778 778 782 787 793 800 805 807 807 806 807 808 808 810 812 814 815 816 816 816 817 816 816 815 815 815 815 815 815 815 815 815 815 814 814
735 737 738 739 741 742 743 744 745 745 745 746 747 749 749 749 750 753 755 757 758 760 760 761 762 763 765 766 768 770 772 774 775 777 779 780 781 782 780 776 775 778 782 788 795 799 799 798 800 803 805 806 808 810 813 814 814 815 815 815 815 814 814 814 813 813 813 813 813 813 813 813 812 812
730 732 733 734 735 737 738 739 739 740 740 742 743 744 744 744 746 747 749 750 752 753 754 755 757 758 760 761 763 765 767 768 769 771 773 775 777 779 780 777 775 775 778 782 787 789 789 791 797 802 804 805 807 809 811 811 812 812 812 813 813 813 813 812 812 812 811 811 812 812 811 811 811 810
724 726 727 728 730 732 733 733 733 734 736 738 739 740 740 741 741 742 744 745 746 748 749 751 753 754 756 757 759 760 761 762 764 766 769 771 772 775 777 776 774 774 775 777 781 785 788 792 796 799 801 803 805 807 808 809 809 809 810 810 811 811 811 811 810 810 810 810 810 810 810 810 810 809
719 719 720 723 726 728 728 727 728 730 732 734 735 736 736 737 737 738 739 740 742 743 745 747 748 750 751 753 755 756 758 760 762 763 764 766 767 768 770 771 772 773 775 777 783 788 791 792 794 796 799 801 802 804 806 807 807 807 808 808 809 809 808 808 808 808 808 808 808 808 808 808 808 807
713 714 715 718 721 721 721 722 724 726 727 729 731 731 732 732 733 734 735 736 738 740 742 743 744 746 747 748 751 753 756 759 760 760 760 761 761 762 764 768 771 773 775 779 784 789 790 790 792 794 796 798 799 801 803 804 805 805 806 806 806 807 807 807 806 806 806 805 805 805 805 805 805 805
710 711 712 714 716 716 716 718 720 722 723 725 727 727 727 728 729 731 732 734 736 738 739 741 742 742 743 743 745 748 751 754 755 755 756 757 757 758 762 766 770 772 775 778 783 786 787 789 791 792 793 795 797 798 800 801 802 802 803 803 804 805 805 805 805 804 804 803 803 803 802 802 802 802
Wind_Speed
10 11 11 11 11 9 7 6 5 6 7 9 7 3 2 2 2 1 2 3 3 5 8 7 7 10 10 11 11 11 11 12 13 14 14 15 15 15 15 15 15 15 14 14 13 12 12 13 13 13 13 13 14 14 14 15 15 14 13 13 12 11 10 10 10 10 11 11 9 7 7 8 8 8
10 11 11 11 11 10 8 8 6 5 6 7 6 3 2 4 4 2 1 2 3 5 9 10 10 11 11 11 11 11 11 12 14 15 16 16 16 15 15 15 15 14 14 13 13 12 12 13 13 12 12 12 12 14 15 15 14 13 12 11 11 10 10 10 11 12 12 12 11 8 7 8 8 8
11 10 10 10 11 10 10 9 7 6 5 6 6 4 3 6 7 5 2 1 3 8 11 12 13 13 13 12 11 11 12 13 15 16 17 17 16 15 15 14 15 15 14 13 12 12 12 13 13 11 11 12 13 14 14 13 11 10 11 11 11 11 11 12 13 13 13 12 12 10 8 7 8 8
12 11 10 10 10 10 11 10 9 7 6 6 6 5 5 6 7 7 4 4 7 11 12 13 15 15 15 13 13 14 14 14 16 17 18 18 17 16 15 15 16 14 13 12 12 13 13 13 11 11 11 13 13 12 10 9 9 10 11 12 12 13 13 13 13 13 13 13 13 12 11 9 8 9
14 13 13 12 11 10 11 11 10 9 7 7 7 7 7 7 7 8 7 7 10 13 13 15 16 16 15 15 15 16 17 17 18 18 19 18 17 16 15 15 15 13 13 13 13 14 13 11 11 11 11 10 9 8 8 9 10 12 13 13 13 14 14 14 14 13 14 14 14 13 12 11 10 8
15 15 15 14 13 12 12 12 12 11 10 9 8 8 9 9 8 8 9 9 10 13 16 17 17 16 16 17 17 17 19 19 19 20 19 19 17 14 14 13 13 14 14 13 14 14 11 9 10 9 8 7 7 7 8 10 12 13 14 14 14 14 14 14 14 15 15 14 14 13 12 12 12 10
17 17 17 17 16 15 15 14 14 13 13 12 11 10 9 10 10 9 10 11 11 14 17 18 18 18 18 19 19 18 19 19 19 20 20 19 16 13 12 11 13 15 13 12 15 12 8 8 8 7 6 7 7 8 10 11 13 14 14 14 14 14 15 15 15 16 15 14 13 13 12 12 12 12
20 20 20 20 19 18 18 18 17 16 15 15 14 13 12 12 12 11 11 12 12 13 16 19 20 19 19 21 20 19 19 19 19 20 19 18 15 12 10 11 14 13 9 11 15 10 7 8 7 6 6 7 8 9 11 12 14 14 14 14 14 15 15 16 16 16 15 15 14 14 13 12 11 11
23 22 22 22 21 21 21 21 20 19 18 17 16 16 15 14 14 14 13 13 13 14 16 19 21 20 20 21 21 19 19 20 21 20 18 17 16 13 11 12 14 10 6 11 13 9 8 8 6 5 6 7 9 10 12 14 14 14 15 15 16 16 17 17 17 17 16 16 16 15 14 13 12 11
24 24 24 23 22 22 22 22 22 21 20 19 18 18 17 16 15 15 15 14 14 15 16 18 20 21 21 21 21 20 19 21 22 20 18 18 16 14 14 15 13 7 6 12 12 8 8 6 4 5 6 7 10 11 13 14 15 15 16 16 17 18 18 18 18 18 17 17 17 16 15 14 12 11
25 24 24 24 23 23 23 22 22 21 21 21 20 19 18 18 17 16 16 15 15 16 16 17 19 21 21 21 21 21 20 21 20 17 17 19 18 16 15 16 13 6 6 11 9 7 7 5 3 5 6 7 10 11 13 13 14 15 16 17 18 19 19 19 19 19 18 18 18 17 16 14 13 12
26 25 25 24 24 24 24 23 22 21 21 20 20 19 19 18 18 18 17 17 16 17 17 18 20 20 21 21 21 21 21 19 18 16 16 18 18 16 15 14 11 7 7 10 7 5 5 3 3 5 6 8 10 11 12 13 14 15 16 18 19 19 20 20 20 19 19 18 18 18 16 15 13 11
28 27 27 26 25 25 24 24 23 22 21 21 21 20 19 19 19 19 19 18 17 18 18 19 20 19 21 22 21 20 20 18 18 18 17 17 16 15 14 12 8 6 8 9 6 4 4 2 2 4 6 8 9 10 11 12 13 15 16 18 19 20 20 20 19 19 19 19 19 18 17 15 12 10
29 29 28 27 26 26 25 25 24 24 23 22 23 22 21 20 19 19 19 18 18 18 18 19 19 18 20 22 20 20 21 20 20 19 17 15 15 15 14 12 9 6 8 9 6 4 4 3 3 4 6 7 8 9 10 11 13 15 17 18 19 19 20 19 19 19 19 20 19 18 17 15 13 10
31 30 30 29 28 27 26 26 26 25 24 24 24 24 23 22 21 20 20 20 20 19 20 20 19 18 20 23 22 21 22 22 20 19 15 14 14 13 11 11 10 8 8 9 7 4 4 4 5 4 5 6 7 8 9 11 13 15 17 18 19 19 19 18 19 19 19 19 19 18 17 16 14 12
32 31 31 30 29 28 27 27 26 25 25 25 24 25 25 24 23 22 21 21 21 22 22 21 21 21 21 23 23 22 22 22 20 18 15 14 14 13 11 11 11 10 10 10 9 5 4 5 5 5 5 6 6 7 9 10 13 16 17 18 18 18 18 18 18 18 18 18 18 18 18 16 15 13
33 33 32 31 30 30 28 27 26 26 25 25 24 24 25 24 24 24 23 23 23 24 24 24 24 24 23 24 25 24 23 22 20 19 18 17 16 14 13 14 13 11 11 11 10 7 7 6 6 5 5 5 6 7 8 10 13 15 16 17 17 17 17 17 17 17 17 18 18 18 18 16 15 13
34 33 33 32 32 31 30 28 27 26 26 25 25 24 24 25 25 24 24 24 24 25 26 27 28 26 25 26 26 25 25 25 24 22 21 20 18 17 16 16 15 13 12 11 9 8 8 8 7 6 6 6 6 6 8 10 12 14 15 15 15 15 16 16 16 16 16 17 18 18 17 16 14 13
34 34 33 33 33 33 32 30 29 27 26 26 25 25 25 25 25 25 24 24 23 24 25 26 27 25 25 26 26 25 25 26 26 24 22 21 20 18 18 18 17 15 14 12 9 8 9 10 9 8 8 7 6 6 7 9 11 12 13 13 13 14 14 15 15 15 15 16 16 17 16 15 13 12
35 35 34 34 34 34 33 32 30 28 27 26 25 25 26 26 26 26 25 24 24 24 24 24 24 23 23 24 25 25 24 23 24 23 22 22 20 18 16 17 16 16 15 12 12 10 10 11 11 10 9 7 6 6 6 7 9 10 10 10 11 12 13 14 14 14 15 15 16 16 16 15 13 11
36 36 36 35 34 35 34 33 32 30 28 26 26 26 26 26 27 28 27 26 26 25 24 24 24 24 24 24 25 25 23 22 22 21 21 22 20 17 14 12 13 16 16 13 13 12 11 12 12 11 10 8 7 6 5 6 7 8 7 8 10 11 12 13 13 14 15 15 16 16 16 15 14 13
37 37 36 36 35 36 35 34 33 31 29 28 27 27 27 27 28 29 29 28 27 26 25 25 24 24 24 24 25 25 24 23 22 22 22 21 19 17 15 13 14 16 17 15 14 13 11 12 12 11 9 9 9 8 5 5 5 5 5 7 9 11 13 13 13 14 15 16 16 17 17 16 16 16
37 37 37 36 36 37 36 35 34 32 31 29 29 28 27 28 30 31 30 29 28 27 26 26 25 25 25 24 25 24 23 21 21 21 22 20 20 20 20 18 14 11 13 15 15 15 14 13 14 13 9 6 8 10 8 4 2 1 3 6 9 11 13 14 13 13 15 16 17 18 18 18 18 18
36 36 37 37 37 37 37 36 35 34 33 32 30 29 29 30 32 32 30 30 28 27 27 27 26 27 26 26 25 24 22 20 19 19 19 19 20 21 22 22 16 10 11 14 13 14 15 14 15 17 14 8 5 8 9 6 3 2 1 6 9 12 14 15 14 14 15 16 17 18 19 19 20 21
35 35 36 38 38 38 37 36 35 34 34 33 32 31 32 33 32 31 31 30 28 27 27 27 28 28 28 27 27 25 24 22 20 18 18 18 20 21 22 23 19 15 16 18 15 14 15 15 16 18 18 13 8 7 8 7 5 4 2 6 9 12 15 16 15 15 16 17 18 19 20 20 20 21
36 36 37 38 38 37 36 35 34 34 34 34 34 34 34 33 32 31 31 31 29 28 28 28 29 30 29 28 28 27 26 24 21 20 19 20 21 21 22 23 21 20 20 18 16 16 17 19 18 18 18 15 10 8 8 8 7 7 3 5 9 11 14 16 16 15 17 18 19 20 20 20 19 19
37 37 38 38 37 36 35 35 34 33 33 33 33 34 33 31 31 31 32 32 30 29 29 28 29 30 29 29 28 28 27 25 23 22 21 21 22 22 22 22 22 22 19 17 16 18 20 21 20 19 18 16 11 9 9 8 8 8 6 2 7 10 12 13 14 15 16 18 19 19 20 20 19 19
38 37 38 37 37 36 35 34 33 32 32 32 32 32 30 29 29 30 32 32 31 30 29 28 29 30 31 30 29 29 28 26 24 23 22 22 22 23 23 23 21 19 17 17 19 20 20 22 21 19 18 17 13 10 9 8 9 8 7 5 2 8 10 10 12 13 15 17 18 19 20 21 21 20
39 39 38 38 37 36 34 33 33 32 32 32 31 31 29 29 29 30 31 31 30 29 29 29 30 31 32 31 31 31 29 26 24 23 23 23 23 23 23 22 20 19 19 20 20 19 18 21 21 18 17 17 16 13 10 8 9 8 6 6 4 3 7 8 9 11 13 15 17 18 18 19 20 20
40 40 39 38 37 36 34 33 33 33 33 32 32 31 30 30 30 29 30 30 30 30 30 31 31 32 32 32 31 29 27 25 25 24 23 23 23 23 22 21 20 21 21 20 18 16 16 18 18 17 16 16 16 15 11 9 10 9 6 5 6 3 3 6 7 9 11 13 14 15 15 16 17 19
42 40 40 40 38 36 34 33 33 33 33 32 32 32 31 31 30 30 29 30 30 30 30 30 30 31 31 30 29 27 26 25 25 25 23 23 22 21 20 20 19 19 19 19 17 16 16 16 15 15 15 16 15 14 12 10 11 11 8 5 5 4 2 3 5 7 9 11 12 13 13 14 15 17
42 40 38 37 36 34 32 32 33 33 33 33 33 33 32 31 31 30 29 29 30 30 29 29 30 30 30 29 27 26 25 25 25 24 23 23 23 21 20 19 18 18 18 18 18 17 15 15 14 13 13 14 14 14 13 13 12 11 10 7 5 3 1 1 3 5 7 8 10 11 12 13 14 16
40 38 36 35 32 31 32 32 33 34 34 33 33 33 32 32 31 30 30 31 32 31 30 30 30 30 29 28 26 25 24 25 26 25 24 24 23 22 21 21 21 20 20 20 19 18 17 16 15 14 13 12 12 12 14 16 15 13 11 9 6 4 3 2 3 3 5 7 8 9 10 12 13 15
35 34 35 35 34 32 32 32 33 33 32 32 33 33 33 33 33 33 33 34 33 32 31 31 31 30 29 27 25 25 25 26 26 26 26 26 26 25 25 23 21 20 21 21 22 21 20 18 16 15 14 13 12 12 14 15 15 15 12 9 8 7 6 4 4 4 4 5 7 8 8 10 12 13
33 34 35 35 35 33 32 33 34 33 31 31 32 33 32 33 34 34 35 36 35 33 33 32 31 31 30 28 27 26 27 27 27 27 26 25 25 25 25 23 22 22 22 23 24 24 22 20 19 16 14 12 11 12 15 16 16 14 13 12 10 9 8 6 5 5 5 4 6 7 7 7 9 10
34 37 37 35 33 32 32 33 34 34 32 32 33 33 32 32 34 35 37 37 36 34 34 33 32 32 32 29 27 27 27 28 28 26 25 25 26 25 24 23 24 24 25 26 28 27 25 23 22 19 14 10 7 8 13 18 19 16 15 14 12 10 8 6 6 7 7 7 7 7 7 6 6 7
33 36 37 35 32 31 33 35 36 35 35 35 34 33 33 34 36 37 36 36 34 34 34 33 32 32 31 29 26 26 28 29 28 27 26 27 27 26 26 26 26 25 26 28 29 29 28 26 26 24 17 9 4 4 9 15 18 18 17 15 12 10 8 7 9 9 8 9 9 8 8 8 7 5
34 33 33 32 32 31 33 35 35 34 35 35 34 33 34 36 38 35 32 31 32 32 32 32 32 31 30 28 26 26 27 28 28 28 26 26 28 30 31 31 30 28 28 28 28 30 31 30 29 28 22 12 5 4 7 10 14 17 17 15 12 11 9 10 11 11 10 10 10 10 10 10 9 7
35 32 31 31 31 32 34 34 34 35 36 35 34 34 35 37 37 32 29 29 31 31 31 32 33 33 32 30 29 28 27 28 28 27 26 27 30 34 35 34 32 29 27 26 26 30 33 33 32 31 28 21 15 12 12 11 12 13 13 12 12 11 11 12 13 13 13 13 12 12 13 12 12 11
37 34 33 33 33 34 35 35 35 36 37 36 35 35 37 38 35 31 29 30 32 32 32 33 33 33 33 32 30 28 27 27 28 28 29 30 32 35 35 33 31 28 26 25 27 33 38 38 35 31 27 24 20 16 13 11 10 11 11 11 11 12 12 13 14 15 16 15 14 14 15 15 14 13
38 36 35 35 35 35 36 37 37 37 38 36 35 36 37 37 34 32 32 33 33 33 33 33 33 33 32 32 31 30 28 29 29 29 29 29 31 33 33 30 27 26 26 25 29 37 42 40 35 30 26 23 20 14 9 7 9 12 13 12 11 11 12 13 14 16 17 17 16 15 16 16 16 16
38 39 38 38 37 37 38 39 39 38 36 35 36 36 36 36 34 33 33 33 33 32 32 32 32 32 32 31 31 31 31 30 30 29 28 28 29 32 33 30 27 26 26 26 29 34 36 34 32 29 26 23 20 15 10 10 12 15 15 13 12 12 12 13 14 15 17 19 19 18 17 14 12 13
36 39 40 38 37 37 39 40 39 37 35 36 37 36 35 34 34 34 33 33 33 32 32 32 31 32 32 31 30 31 31 28 27 29 30 31 31 33 33 31 28 27 26 25 25 27 28 28 29 28 26 23 21 17 15 16 17 18 17 15 14 14 13 13 14 14 15 17 19 20 20 18 13 11
34 37 38 36 35 39 43 42 38 36 35 35 35 35 34 34 34 34 34 33 32 31 31 31 31 31 31 30 29 30 29 27 28 32 33 34 34 34 31 28 26 26 26 23 22 22 24 24 25 26 26 25 23 21 20 19 19 18 17 17 15 14 13 12 13 14 15 16 18 19 22 24 23 22
31 34 35 33 34 39 42 40 36 34 34 32 31 31 31 31 32 33 33 31 29 29 29 29 29 29 29 29 30 29 28 28 33 36 35 34 33 30 28 26 26 26 25 24 23 22 21 21 22 24 25 25 25 24 23 22 19 17 15 14 12 12 11 11 13 15 16 18 19 19 20 22 24 25
Wind_Direction
253 255 255 258 259 261 268 281 307 325 334 346 351 330 308 358 14 344 322 330 333 356 3 358 348 356 3 3 3 3 2 1 359 358 357 357 356 357 359 358 357 358 357 356 353 347 344 343 341 339 339 339 337 335 333 332 330 326 321 320 322 324 329 333 340 348 349 348 345 338 328 321 315 304
260 259 258 258 257 255 260 269 285 306 320 330 338 344 346 348 347 325 285 311 324 342 349 350 348 351 358 2 3 4 4 2 360 360 359 358 358 359 359 359 359 358 355 350 346 342 342 340 336 336 337 336 332 328 327 329 330 332 335 340 344 347 350 351 350 349 347 346 345 341 328 312 307 309
265 262 261 261 260 257 257 262 272 291 305 310 309 308 319 327 323 310 283 266 319 327 332 339 345 346 348 353 357 357 359 359 357 358 359 359 360 359 359 1 0 357 354 350 347 348 347 341 336 338 335 327 323 324 329 335 342 350 355 360 2 1 359 356 352 349 346 344 340 334 324 305 289 289
262 265 268 268 266 261 258 259 266 277 291 300 295 285 292 304 304 299 280 258 295 316 324 330 336 339 339 343 349 348 349 353 352 356 360 360 359 359 360 2 2 0 360 357 355 354 348 339 334 332 324 320 325 335 346 357 3 6 7 5 3 0 358 356 353 351 349 348 346 341 334 320 292 274
258 263 270 272 273 271 266 264 266 269 275 287 288 280 280 286 288 286 277 273 291 308 318 322 327 333 333 334 341 342 342 345 348 354 0 0 359 359 359 2 4 4 2 359 359 356 346 335 331 326 323 331 347 2 11 15 13 10 6 3 1 0 359 357 356 356 355 352 349 346 341 333 319 289
258 262 268 272 275 278 277 274 272 270 269 274 281 280 277 277 281 280 278 279 285 298 309 315 320 327 328 327 332 336 337 339 343 350 358 359 359 358 359 2 3 360 358 360 2 358 345 336 337 339 347 4 17 21 20 16 11 7 4 2 3 1 359 358 358 357 355 352 348 347 345 341 337 323
262 263 267 271 274 277 279 279 278 277 275 274 277 280 278 277 280 282 282 281 280 290 302 308 313 319 321 321 325 330 332 335 340 346 353 357 357 358 1 1 356 352 353 3 5 358 346 347 354 2 14 24 25 21 18 12 7 4 4 3 2 360 357 356 355 354 352 352 353 352 351 348 344 341
263 264 266 269 272 274 276 277 278 279 278 277 276 278 279 278 281 284 285 285 283 287 295 301 306 311 313 316 320 325 328 331 337 343 349 354 357 0 3 356 351 350 352 2 3 354 347 359 9 17 22 26 23 18 13 8 5 3 2 1 358 355 354 352 352 352 352 353 355 354 353 351 345 343
263 264 266 269 270 271 272 274 275 275 277 278 277 276 276 277 281 283 284 287 288 285 288 295 301 305 308 313 317 321 325 329 334 340 345 352 356 357 358 356 355 355 354 359 1 354 354 8 18 22 26 26 19 14 7 2 359 359 358 356 354 352 351 351 350 351 353 355 356 356 357 356 351 344
263 264 266 268 268 267 268 270 271 272 273 275 277 276 275 276 280 281 282 285 287 285 286 291 296 301 305 310 313 319 323 325 329 335 340 348 355 354 353 357 1 5 356 358 1 358 0 15 29 28 30 22 11 4 357 354 352 353 354 352 351 350 349 349 349 350 352 352 352 353 353 354 356 353
263 264 266 266 266 264 264 265 267 269 270 272 274 277 276 275 276 278 280 282 283 284 285 287 291 296 301 304 308 313 317 320 325 331 333 340 349 352 351 354 359 5 3 1 3 2 5 18 35 30 25 10 360 353 349 350 351 352 352 351 350 349 348 349 349 349 348 347 348 348 347 346 348 352
261 263 265 266 265 264 264 265 265 267 268 269 271 273 275 276 275 275 276 277 279 281 282 284 288 291 294 297 302 308 312 316 322 327 327 329 338 345 348 351 349 346 357 3 0 350 356 15 33 23 7 354 350 347 348 351 352 352 352 350 350 349 349 350 348 348 349 352 354 354 350 344 340 342
260 261 263 264 265 265 265 266 266 266 266 266 266 269 271 274 274 274 274 275 276 277 277 279 283 286 288 292 297 302 306 310 314 318 319 322 329 334 337 342 340 325 340 355 352 327 327 327 348 356 350 345 344 343 346 350 351 352 352 350 350 351 351 350 351 354 357 359 360 360 357 352 344 337
258 260 261 263 264 265 266 266 266 266 265 264 264 266 268 270 271 272 272 273 273 273 273 275 278 278 281 287 292 295 300 305 307 309 312 317 323 327 329 334 334 320 325 341 343 321 305 296 304 332 340 338 339 341 347 353 354 353 352 351 352 353 353 354 357 0 3 3 3 2 2 2 356 345
258 259 261 262 263 264 264 265 265 266 266 265 264 264 265 266 268 268 268 270 271 270 269 272 274 272 275 284 289 291 296 300 301 303 306 310 314 319 320 318 318 315 316 326 328 308 282 284 294 319 334 334 336 342 351 359 359 354 352 353 355 356 357 359 1 2 4 5 6 6 8 8 4 356
257 258 260 262 262 263 264 265 266 266 267 266 265 265 266 265 265 265 265 266 267 267 267 268 270 270 273 280 286 288 292 294 296 297 297 300 304 307 302 295 300 309 310 312 315 296 260 266 285 306 322 325 330 342 352 358 358 355 354 354 356 359 1 2 1 2 5 8 9 10 12 11 7 2
254 256 258 259 261 264 265 265 265 266 267 268 267 267 267 265 263 262 262 262 264 265 265 264 267 271 273 277 283 288 290 289 288 287 288 293 297 297 294 292 294 300 300 299 302 287 257 254 271 289 301 311 320 335 348 354 356 355 355 356 358 0 2 2 1 2 6 11 13 14 15 14 10 6
252 254 255 257 261 264 265 265 266 266 266 267 268 268 267 266 265 264 262 262 261 262 262 262 265 271 275 277 284 290 289 285 283 283 284 289 293 292 291 291 290 290 288 285 286 277 254 247 256 270 280 292 304 321 338 348 353 355 354 356 358 0 2 3 3 5 8 13 17 17 17 16 12 9
250 252 253 255 259 262 264 265 266 266 266 266 266 267 268 269 270 269 268 267 266 265 265 265 268 273 277 279 285 290 290 287 286 285 284 286 288 288 287 286 284 285 282 269 257 257 251 243 244 255 266 274 284 303 328 342 349 352 354 355 358 1 5 6 6 8 10 15 20 22 22 19 13 8
248 250 250 252 256 259 262 265 266 266 265 263 263 264 267 270 271 273 275 275 274 273 272 273 275 278 279 280 285 290 291 289 288 287 283 282 282 281 280 281 281 284 283 264 243 245 251 243 238 245 253 257 266 283 310 334 346 350 353 359 5 8 12 13 10 9 11 16 23 26 28 27 19 9
247 248 249 250 252 255 259 263 265 265 262 259 259 262 265 267 270 274 278 278 277 277 278 280 282 282 281 280 282 287 289 288 286 280 274 276 276 270 269 275 280 284 284 267 242 238 247 245 236 235 239 243 253 270 292 320 343 352 357 9 18 20 21 19 14 11 12 16 23 28 31 32 29 22
245 247 249 249 250 252 257 261 263 263 259 255 256 258 261 263 266 272 277 278 278 280 281 283 284 284 283 281 282 285 286 286 283 273 269 273 271 264 264 272 278 281 280 268 242 229 240 245 232 221 222 234 247 253 266 305 335 353 8 20 23 25 26 24 18 16 17 19 24 28 31 32 32 30
243 245 247 248 248 250 255 259 261 260 257 254 254 256 256 257 262 270 275 276 277 280 281 283 285 285 285 285 285 286 286 283 279 274 273 271 265 262 265 269 269 272 276 268 244 228 236 241 229 218 211 223 245 242 239 264 310 329 18 27 28 29 30 30 26 23 23 24 26 28 31 32 32 30
240 242 244 247 248 250 253 256 259 258 256 254 254 253 251 252 260 271 274 273 276 278 280 283 285 285 287 287 287 288 287 282 276 273 271 267 264 264 266 266 260 250 264 267 245 229 237 240 232 227 225 227 237 228 225 234 238 202 64 37 35 34 34 33 31 29 28 29 30 30 31 32 32 30
237 240 243 246 249 250 251 254 256 256 256 255 253 252 252 256 264 271 272 272 273 275 276 279 281 281 283 283 284 286 285 281 277 272 269 266 264 264 266 266 259 252 262 265 247 234 242 243 235 229 226 228 232 219 215 221 215 197 117 52 43 39 37 33 29 28 29 31 33 34 33 31 30 29
237 239 243 246 249 251 252 254 255 256 255 254 253 254 257 262 266 268 269 269 269 269 270 273 275 276 277 278 280 281 281 280 276 272 269 266 264 264 266 269 266 263 269 268 252 243 247 246 241 230 221 222 226 219 214 212 208 204 167 64 49 44 39 33 26 24 26 29 32 34 35 34 32 30
238 241 244 246 249 251 253 254 256 256 254 253 254 257 259 262 265 265 264 264 264 265 266 267 268 270 272 273 275 276 278 278 275 271 269 267 265 264 265 269 270 270 271 268 259 254 250 246 245 239 230 225 220 213 217 215 207 204 196 117 54 47 42 34 27 23 23 27 29 31 34 36 36 35
240 242 245 247 250 252 253 255 257 257 255 254 256 259 260 261 262 260 258 259 259 260 261 261 262 266 268 270 271 274 276 278 275 270 266 263 262 263 263 264 266 268 267 261 259 259 252 246 247 247 240 233 224 219 225 220 204 197 200 199 92 52 45 36 28 24 24 26 27 27 29 31 32 33
240 243 247 250 252 253 253 255 255 255 254 255 257 259 259 259 257 255 255 256 255 254 256 257 259 263 267 269 272 274 275 273 269 263 259 257 258 259 259 258 260 264 264 258 254 254 249 245 247 249 244 238 234 233 232 215 197 190 191 195 180 74 47 41 33 26 26 27 27 27 27 27 28 29
241 244 247 250 251 251 251 251 252 252 254 256 257 257 256 254 253 252 252 252 251 250 252 255 257 262 267 269 271 271 269 265 261 257 254 254 256 256 255 254 256 258 257 253 249 247 243 243 246 246 241 239 239 239 233 212 195 189 182 177 172 152 56 41 35 30 30 29 27 27 27 26 27 29
239 241 245 247 248 248 248 249 250 252 253 254 254 253 252 252 253 253 254 254 253 252 252 253 257 263 266 265 265 265 262 258 256 253 250 250 251 252 252 250 249 249 247 245 243 240 237 236 236 234 236 239 239 235 227 212 198 191 184 174 163 155 106 41 33 30 32 32 28 27 26 27 28 28
236 238 242 244 244 243 243 243 245 245 246 248 249 250 251 252 253 254 254 253 251 251 251 252 255 258 259 259 259 258 256 253 252 249 246 246 247 247 244 239 236 236 237 237 237 234 228 223 220 221 231 240 242 234 219 206 200 196 192 188 178 168 170 5 15 22 28 31 30 27 25 25 27 27
233 234 237 239 239 238 237 238 240 241 242 243 245 247 249 250 251 250 249 248 248 250 250 249 250 252 252 253 253 251 249 248 248 245 242 240 240 237 232 227 227 230 230 229 229 225 218 212 211 216 225 233 240 237 222 208 202 200 196 195 197 200 221 271 319 357 13 19 23 25 26 24 23 24
227 230 233 234 234 233 232 234 236 238 239 240 242 244 245 246 247 247 247 247 249 249 248 247 248 249 248 246 245 243 241 242 244 243 239 236 232 225 218 215 218 224 230 230 226 219 213 210 209 214 221 225 226 227 223 216 208 201 198 203 212 214 220 240 270 308 341 354 357 4 17 26 25 22
222 226 230 232 232 231 231 233 235 237 238 238 240 242 243 244 245 245 245 247 247 246 245 245 245 245 244 242 239 237 236 237 239 238 233 228 224 218 212 208 209 215 225 229 225 217 211 209 209 209 212 216 218 220 222 219 212 205 205 211 219 223 224 229 248 274 297 309 316 329 347 11 23 23
221 225 227 230 231 229 229 232 235 237 237 238 239 239 239 241 243 243 244 246 246 243 243 242 242 243 242 239 235 234 234 234 231 226 221 220 220 216 210 209 212 215 219 223 222 217 210 209 210 205 196 194 207 224 225 219 214 212 214 215 219 224 227 233 249 262 273 277 280 295 312 328 356 16
221 225 226 228 229 227 228 232 234 235 236 238 239 238 238 241 244 245 246 246 244 241 241 241 240 241 240 236 232 231 232 231 227 219 215 215 215 211 208 208 212 214 215 217 219 215 210 209 210 205 195 186 194 226 228 221 217 217 218 219 222 225 227 240 255 261 267 270 270 275 287 298 313 340
221 224 225 227 228 227 229 231 232 234 236 237 237 237 239 243 246 246 244 243 241 239 239 238 237 238 238 234 228 225 226 227 226 222 217 210 206 206 206 204 206 210 211 211 213 214 212 211 210 207 201 193 189 213 224 222 220 220 221 222 229 235 238 246 257 264 268 269 269 272 275 281 292 303
223 225 225 226 228 229 231 232 232 233 235 237 236 236 239 243 244 241 237 238 240 239 236 233 233 234 232 230 227 224 222 221 221 222 221 214 211 212 209 202 200 201 201 201 207 212 212 211 211 210 208 205 209 222 228 225 223 224 222 223 234 245 250 253 257 263 266 265 268 272 272 274 281 288
223 225 227 227 228 230 232 233 234 234 236 236 236 237 240 242 241 237 235 237 239 237 233 230 230 229 227 227 226 222 219 219 222 225 224 220 220 220 214 204 197 192 190 193 203 210 211 211 212 213 214 215 220 230 237 233 231 231 229 231 241 251 259 263 262 261 262 263 265 266 268 270 274 278
222 224 227 228 229 230 233 235 235 236 237 238 238 240 241 242 240 237 238 239 238 234 230 227 225 224 223 223 222 218 216 221 226 225 222 219 221 222 220 211 200 193 190 194 204 210 212 213 214 214 217 219 220 224 230 230 233 239 242 245 252 260 268 273 271 266 263 262 260 259 262 267 270 274
223 225 228 228 228 230 233 236 237 237 237 238 241 242 242 242 241 240 240 239 236 232 228 225 222 222 222 220 220 220 221 222 223 220 217 216 216 218 219 214 205 197 194 199 208 214 214 213 213 213 214 217 218 216 217 226 238 247 253 257 267 276 279 280 280 275 269 264 259 258 260 262 264 269
225 227 229 228 227 230 234 237 237 237 237 239 242 243 242 241 241 239 238 236 233 230 228 224 222 222 222 220 222 223 221 219 220 220 218 216 214 213 214 211 205 199 199 205 213 216 213 212 213 213 212 214 216 216 221 231 240 248 257 266 276 283 284 283 284 281 274 268 265 263 262 259 252 252
227 229 230 227 226 232 237 238 237 238 239 239 241 243 242 240 240 240 238 236 233 230 227 225 224 224 221 219 223 223 216 215 224 226 222 218 216 212 208 203 198 197 200 205 210 212 212 212 214 213 212 215 218 220 226 234 240 247 257 266 272 275 275 278 283 284 281 278 275 271 268 264 261 260
231 232 232 228 228 234 238 238 237 239 239 238 239 241 241 239 239 240 240 238 235 233 232 230 229 227 222 219 222 221 214 214 223 227 224 219 215 209 201 196 193 194 199 202 203 205 208 208 209 211 214 217 221 226 231 237 243 249 253 256 258 260 265 273 279 281 283 283 283 281 277 273 270 266